Regional Weather Roundup
Issued by NWS Midland/Odessa, TX

Skip options and go directly to product.
Home | Oldest Version | Previous Version | Current Version | All | Text Only | Save Text | Print | Product List | Glossary On

Skip product version selection by date and time.   
399
ASUS44 KMAF 092010
RWRMAF
MIDLAND AREA WEATHER ROUNDUP
NATIONAL WEATHER SERVICE MIDLAND TX
200 PM CST TUE FEB 09 2016

...IN SOUTHWEST TEXAS AND SOUTHEAST NEW MEXICO...

CITY           SKY/WX    TMP DP  RH WIND       PRES   REMARKS
ALPINE         SUNNY     63  16  15 W9        30.39F
ANDREWS        FAIR      62  20  20 W5        30.33F
ARTESIA        SUNNY     57  19  23 S7        30.33F
BIG SPRING     SUNNY     61  24  23 W9        30.34F
CARLSBAD       SUNNY     59  18  20 S12       30.32F
DRYDEN           N/A     68  20  16 S9        30.30F
FORT STOCKTON  SUNNY     64  23  21 E8        30.33F
GUAD PASS      SUNNY     57  15  19 SW14      30.37F
HOBBS          SUNNY     59  18  20 S10G21    30.34F
MARFA          SUNNY     60  14  16 S10       30.36F
MIDLAND AIRPK  SUNNY     63  23  21 W3        30.33F
MIDLAND INTL   SUNNY     63  23  21 CALM      30.33F
ODESSA         SUNNY     62  20  19 CALM      30.33F
PECOS          SUNNY     61  22  22 SE6       30.33F
PRESIDIO       FAIR      61  17  18 SE6       30.34F
SEMINOLE       SUNNY     60  20  21 NW8       30.34F
SNYDER           N/A     65  25  21 NW6G17    30.30F
WINK           SUNNY     61  21  21 S8        30.32F
$$
...OTHER STATIONS IN TEXAS...

CITY           SKY/WX    TMP DP  RH WIND       PRES   REMARKS
ABILENE        SUNNY     67  28  23 N18G29    30.26F
AMARILLO       SUNNY     63  21  20 NW18      30.29F
AUSTIN         SUNNY     71  28  20 NW13G23   30.25F
BROWNSVILLE    SUNNY     74  27  17 N6        30.32F
CORPUS CHRISTI MOSUNNY   73  23  15 N9G21     30.30F
DALLAS FTW     SUNNY     62  24  23 NW17      30.22F
DEL RIO        SUNNY     69  19  15 CALM      30.31F
EL PASO        SUNNY     60  16  18 N5        30.33F
HOUSTON INT    SUNNY     64  20  18 NW9G24    30.24F
LUBBOCK        SUNNY     65  22  19 W10G20    30.30F
SAN ANGELO     SUNNY     67  22  18 NW12      30.31F
SAN ANTONIO    SUNNY     69  29  22 VRB7      30.28F
WACO           SUNNY     68  27  21 NW18G24   30.22F
WICHITA FALLS  NOT AVBL
$$
...OTHER LOCATIONS IN NEW MEXICO...

CITY           SKY/WX    TMP DP  RH WIND       PRES   REMARKS
ALAMAGORDO     SUNNY     57  16  19 CALM      30.35F
ALBUQUERQUE    SUNNY     55  21  26 VRB7      30.37F
CANNON AFB     SUNNY     57  16  19 SW8       30.31F
CLOVIS         SUNNY     57  19  23 W12       30.33F
HOLLOMAN AFB   SUNNY     57  17  20 SE2       30.34F
ROSWELL        SUNNY     57  16  20 SE8       30.33F
RUIDOSO          N/A     55  16  21 NW8       30.38F
SANTA FE       SUNNY     55  18  23 N8        30.35F
TRUTH OR CONSE SUNNY     58  19  22 VRB5      30.34F
TUCUMCARI      SUNNY     60  15  17 VRB6      30.30F
$$

USA.gov is the U.S. government's official web portal to all federal, state and local government web resources and services.